This is the latest recevied weather packets stored in our database for station/object DB0WUN-13. If no packets are shown the sender has not sent any weather packets the latest 10 day(s).
| Time | Temp. | Humidity | Pressure | Rain* | Wind** | Luminosity | Snow |
|---|---|---|---|---|---|---|---|
| 1777891857 | 20.56° C | 41% | 1014.8 hPa | 0 mm | - | 895 W/m² | - |
| 1777891800 | 20.56° C | 42% | 1014.8 hPa | 0 mm | - | 893 W/m² | - |
| 1777891738 | 20.56° C | 42% | 1014.8 hPa | 0 mm | - | 891 W/m² | - |
| 1777891679 | 20.56° C | 41% | 1014.7 hPa | 0 mm | - | 879 W/m² | - |
| 1777891617 | 20.56° C | 43% | 1014.8 hPa | 0 mm | - | 884 W/m² | - |
| 1777891563 | 20.56° C | 42% | 1014.8 hPa | 0 mm | - | 884 W/m² | - |
| 1777891524 | 20° C | 43% | 1014.8 hPa | 0 mm | - | 893 W/m² | - |
| 1777891493 | 20° C | 43% | 1014.8 hPa | 0 mm | - | 893 W/m² | - |
| 1777891455 | 20° C | 44% | 1014.8 hPa | 0 mm | - | 888 W/m² | - |
| 1777891417 | 19.44° C | 45% | 1014.9 hPa | 0 mm | - | 879 W/m² | - |
| 1777891375 | 19.44° C | 45% | 1014.9 hPa | 0 mm | - | 879 W/m² | - |
| 1777891199 | 19.44° C | 43% | 1014.8 hPa | 0 mm | - | 877 W/m² | - |
| 1777891163 | 19.44° C | 43% | 1015 hPa | 0 mm | - | 886 W/m² | - |
| 1777891122 | 19.44° C | 42% | 1015 hPa | 0 mm | - | 882 W/m² | - |
| 1777891083 | 19.44° C | 42% | 1015 hPa | 0 mm | - | 879 W/m² | - |
| 1777891043 | 20° C | 42% | 1015 hPa | 0 mm | - | 863 W/m² | - |
| 1777890998 | 20° C | 43% | 1014.9 hPa | 0 mm | - | 861 W/m² | - |
| 1777890963 | 20° C | 44% | 1015 hPa | 0 mm | - | 875 W/m² | - |
| 1777890919 | 19.44° C | 45% | 1014.9 hPa | 0 mm | - | 872 W/m² | - |
| 1777890748 | 19.44° C | 44% | 1015 hPa | 0 mm | - | 849 W/m² | - |
| 1777890699 | 19.44° C | 44% | 1015 hPa | 0 mm | - | 833 W/m² | - |
| 1777890648 | 19.44° C | 44% | 1015.2 hPa | 0 mm | - | 874 W/m² | - |
| 1777890615 | 19.44° C | 44% | 1015.1 hPa | 0 mm | - | 881 W/m² | - |
| 1777890583 | 19.44° C | 45% | 1015.1 hPa | 0 mm | - | 893 W/m² | - |
| 1777890416 | 19.44° C | 45% | 1015.1 hPa | 0 mm | - | 893 W/m² | - |
* Rain latest hour (hover to see other rain measurements)
** Current wind speed in m/s (hover to see current wind gust speed)